Location: Doschendorf
(50.0069°N, 11.0602°E)
Time: 23:16:30
(UTC+00:00)

Cosmos 1980 Rocket - Pass Details

Date: 17 November 2019
Orbit: 828 x 851 km, 71.0° (Epoch: 15 December)

Event Time Altitude Azimuth Distance (km) Brightness Sun altitude
Rises 16:22:20 0° 154° (SSE) 3,387 5.3 -8.5°
Reaches altitude 10° 16:25:41 10° 134° (SE) 2,462 4.4 -9.0°
Maximum altitude 16:28:59 16° 98° (E) 2,075 3.7 -9.5°
Enters shadow 16:31:23 13° 70° (ENE) 2,299 3.8 -9.9°
